sat.trackr.live / text

‹ back to catalog

FENGYUN 4C

NORAD 67246 · 2025-312A

PAYLOAD ACTIVE UNKNOWN

§ Identity

Operator
Country
PRC
Launch date
2025-12-26
Launch site
XICLF
Launch vehicle
Mass (kg)
RCS (m²)

Purposes: comms

External: N2YO · Heavens-Above · Gunter

§ Orbital elements

Epoch: 2026-05-25T04:22:36.120864Z

Period
1,436.10 min
Inclination
0.0193°
Eccentricity
0.0000467
Mean motion
1.00271254 rev/d
Perigee alt
35,784.8 km
Apogee alt
35,788.7 km
Semi-major
42,164.9 km
B*
0.0000e+0
RAAN
94.5537°
Arg perigee
51.2065°
Mean anomaly
295.6612°
Rev number
154

§ Raw data

FENGYUN 4C1 67246U 25312A   26145.18236251 -.00000325  00000+0  00000+0 0  99932 67246   0.0193  94.5537 0000467  51.2065 295.6612  1.00271254  1542

JSON: /api/v1/satellites/67246 · /tle

For live sub-satellite position, see the globe view (requires WebGL).

§ Visibility from observer

Set your observer location to see the next 7 days of passes ≥ 10°. The values pass through the URL so the page stays shareable.

No JS? Fill the form by hand. The geolocation button needs JavaScript.